TimeEDT,TemperatureF,Dew PointF,Humidity,Sea Level PressureIn,VisibilityMPH,Wind Direction,Wind SpeedMPH,Gust SpeedMPH,PrecipitationIn,Events,Conditions,WindDirDegrees,DateUTC
12:52 AM,59.0,52.0,78,29.91,10.0,South,9.2,-,N/A,,Clear,190,2012-10-15 04:52:00
1:42 AM,60.8,51.8,72,29.89,10.0,SSW,11.5,21.9,N/A,,Mostly Cloudy,210,2012-10-15 05:42:00
1:52 AM,60.1,52.0,75,29.91,10.0,SW,8.1,21.9,N/A,,Mostly Cloudy,220,2012-10-15 05:52:00
2:52 AM,60.1,53.1,78,29.89,10.0,SSW,8.1,20.7,N/A,,Mostly Cloudy,200,2012-10-15 06:52:00
3:52 AM,61.0,54.0,78,29.86,10.0,SSW,11.5,17.3,N/A,,Overcast,210,2012-10-15 07:52:00
4:52 AM,61.0,54.0,78,29.84,10.0,SSW,10.4,25.3,N/A,,Mostly Cloudy,210,2012-10-15 08:52:00
5:13 AM,60.8,53.6,77,29.82,10.0,SSW,11.5,24.2,N/A,,Mostly Cloudy,210,2012-10-15 09:13:00
5:24 AM,60.8,53.6,77,29.82,10.0,SSW,10.4,23.0,N/A,,Scattered Clouds,210,2012-10-15 09:24:00
5:52 AM,61.0,54.0,78,29.82,10.0,SSW,12.7,18.4,N/A,,Scattered Clouds,200,2012-10-15 09:52:00
5:59 AM,62.6,53.6,72,29.80,10.0,SSW,13.8,24.2,N/A,,Mostly Cloudy,200,2012-10-15 09:59:00
6:43 AM,62.6,55.4,77,29.78,10.0,SSW,13.8,21.9,N/A,,Overcast,200,2012-10-15 10:43:00
6:52 AM,62.1,55.0,78,29.78,10.0,SSW,10.4,21.9,N/A,,Overcast,210,2012-10-15 10:52:00
7:08 AM,62.6,55.4,77,29.77,10.0,SSW,16.1,24.2,N/A,,Overcast,200,2012-10-15 11:08:00
7:38 AM,62.6,55.4,77,29.77,10.0,SW,9.2,23.0,N/A,,Overcast,220,2012-10-15 11:38:00
7:59 AM,64.4,55.4,73,29.77,10.0,SSW,16.1,23.0,N/A,,Overcast,210,2012-10-15 11:59:00
8:52 AM,64.0,55.0,73,29.78,10.0,SSW,12.7,23.0,N/A,,Overcast,200,2012-10-15 12:52:00
9:52 AM,64.9,55.9,73,29.77,10.0,SSW,12.7,21.9,N/A,,Overcast,210,2012-10-15 13:52:00
10:52 AM,66.0,55.9,70,29.76,10.0,SSW,12.7,23.0,N/A,,Overcast,210,2012-10-15 14:52:00
11:52 AM,68.0,55.9,65,29.75,10.0,SSW,15.0,21.9,N/A,,Overcast,200,2012-10-15 15:52:00
12:52 PM,68.0,55.9,65,29.73,10.0,SSW,11.5,24.2,N/A,,Mostly Cloudy,210,2012-10-15 16:52:00
2:08 PM,69.8,57.2,64,29.69,10.0,SSW,12.7,21.9,N/A,,Mostly Cloudy,200,2012-10-15 18:08:00
2:52 PM,70.0,57.0,63,29.69,10.0,SSW,13.8,25.3,N/A,,Mostly Cloudy,210,2012-10-15 18:52:00
3:37 PM,69.8,57.2,64,29.67,10.0,SSW,11.5,19.6,N/A,,Overcast,200,2012-10-15 19:37:00
3:52 PM,69.1,57.0,65,29.67,10.0,SSW,9.2,19.6,0.00,Rain,Light Rain,200,2012-10-15 19:52:00
4:52 PM,68.0,57.0,68,29.65,10.0,South,8.1,-,0.00,,Mostly Cloudy,190,2012-10-15 20:52:00
5:23 PM,66.2,57.2,73,29.65,10.0,SSW,5.8,-,0.00,Rain,Light Rain,200,2012-10-15 21:23:00
5:31 PM,66.2,57.2,73,29.65,10.0,South,4.6,-,0.00,,Overcast,190,2012-10-15 21:31:00
5:52 PM,66.0,57.9,75,29.65,8.0,Calm,Calm,-,0.01,Rain,Rain,0,2012-10-15 21:52:00
6:33 PM,64.4,59.0,83,29.63,6.0,South,4.6,-,0.04,Rain,Rain,180,2012-10-15 22:33:00
6:52 PM,64.0,59.0,84,29.64,10.0,SSW,3.5,-,0.05,Rain,Light Rain,200,2012-10-15 22:52:00
7:11 PM,64.4,59.0,83,29.65,3.0,WSW,10.4,16.1,0.07,Rain,Heavy Rain,250,2012-10-15 23:11:00
7:13 PM,62.6,57.2,82,29.65,1.8,SW,10.4,16.1,0.16,Rain,Heavy Rain,230,2012-10-15 23:13:00
7:21 PM,62.6,55.4,77,29.64,1.2,SSW,6.9,-,0.26,Rain,Heavy Rain,210,2012-10-15 23:21:00
7:24 PM,62.6,55.4,77,29.65,2.0,SSW,8.1,-,0.28,Rain,Heavy Rain,200,2012-10-15 23:24:00
7:43 PM,60.8,57.2,88,29.66,4.0,South,5.8,-,0.35,Rain,Rain,190,2012-10-15 23:43:00
7:52 PM,61.0,57.0,87,29.66,6.0,South,4.6,-,0.36,Rain,Light Rain,180,2012-10-15 23:52:00
8:03 PM,60.8,57.2,88,29.66,6.0,SSW,8.1,-,0.02,Rain,Light Rain,210,2012-10-16 00:03:00
8:28 PM,60.8,55.4,82,29.65,5.0,South,5.8,-,0.10,Rain,Rain,180,2012-10-16 00:28:00
8:52 PM,61.0,55.9,83,29.64,10.0,South,5.8,-,0.11,Rain,Light Rain,180,2012-10-16 00:52:00
9:06 PM,60.8,55.4,82,29.64,10.0,South,6.9,-,0.01,Rain,Light Rain,190,2012-10-16 01:06:00
9:20 PM,60.8,55.4,82,29.65,10.0,South,6.9,-,0.01,Rain,Light Rain,190,2012-10-16 01:20:00
9:52 PM,60.1,55.9,86,29.66,9.0,SSW,4.6,-,0.01,Rain,Light Rain,210,2012-10-16 01:52:00
10:29 PM,60.8,55.4,82,29.63,10.0,SSW,3.5,-,0.00,,Overcast,210,2012-10-16 02:29:00
10:49 PM,60.8,55.4,82,29.63,10.0,WSW,3.5,-,0.00,,Overcast,250,2012-10-16 02:49:00
10:52 PM,60.1,55.9,86,29.64,10.0,SW,3.5,-,0.00,,Overcast,230,2012-10-16 02:52:00
11:11 PM,60.8,55.4,82,29.64,10.0,SSW,4.6,-,N/A,,Overcast,200,2012-10-16 03:11:00
11:29 PM,60.8,55.4,82,29.64,10.0,SSW,4.6,-,N/A,,Overcast,210,2012-10-16 03:29:00
11:40 PM,60.8,55.4,82,29.64,10.0,Calm,Calm,-,N/A,,Overcast,0,2012-10-16 03:40:00